Regional Weather Roundup
Issued by NWS

Home | Current Version | Previous Version | Text Only | Print | Product List | Glossary Off
Versions: 1 2 3 4 5 6 7 8 9 10 11 12 13 14 15 16 17 18 19 20 21 22 23 24 25 26 27 28 29 30 31 32 33 34 35 36 37 38 39 40 41 42 43 44 45 46 47 48 49 50

000
ASUS43 KFSD 231602
RWRSD

WEATHER ROUNDUP FOR SOUTH DAKOTA
NATIONAL WEATHER SERVICE SIOUX FALLS SD
1100 AM CDT TUE SEP 23 2014

NOTE: "FAIR" INDICATES FEW OR NO CLOUDS BELOW 12,000 FEET WITH NO
SIGNIFICANT WEATHER AND/OR OBSTRUCTIONS TO VISIBILITY.


SDZ001>005-009-010-012>017-231700-
NORTHWEST AND NORTH CENTRAL SOUTH DAKOTA

CITY           SKY/WX    TMP DP  RH WIND       PRES   REMARKS
FAITH            N/A     63  56  78 S5        29.92S
MOBRIDGE       CLOUDY    65  57  75 SE16      29.93S
$$

SDZ012>016-024>037-041>051-057-063-072>074-231700-
SOUTHWEST AND SOUTH CENTRAL SOUTH DAKOTA

CITY           SKY/WX    TMP DP  RH WIND       PRES   REMARKS
RAPID CTY ARPT CLOUDY    66  56  70 W3        29.94S HAZE
PIERRE         CLOUDY    63  56  78 SE16      29.92S
CUSTER         PTSUNNY   64  47  53 NW13      30.05S
ELLSWORTH AFB  CLOUDY    65  57  75 CALM      29.93S
PHILIP         PTSUNNY   64  54  69 CALM      29.90F
PINE RIDGE     PTSUNNY   65  54  67 W9        29.96R
WINNER         CLOUDY    63  56  78 S17G23    29.96S
$$

SDZ004>011-016>023-039-040-231700-
NORTHEAST SOUTH DAKOTA

CITY           SKY/WX    TMP DP  RH WIND       PRES   REMARKS
ABERDEEN       LGT RAIN  61  57  87 S21G26    30.03S
WATERTOWN      CLOUDY    59  53  80 S16G25    30.10S
SISSETON         N/A     64  55  72 S8        30.07S
$$

SDZ017-020-022-023-036>040-048>070-231700-
SOUTHEAST SOUTH DAKOTA

CITY           SKY/WX    TMP DP  RH WIND       PRES   REMARKS
SIOUX FALLS    LGT RAIN  58  55  90 SE12      30.14S
HURON          RAIN      57  56  96 SE16G25   30.04S FOG
CHAMBERLAIN    CLOUDY    60  55  85 SE16G22   29.98F
MITCHELL       HVY RAIN  57  56  96 SE15G24   30.07S FOG
YANKTON        CLOUDY    57  54  88 SE12G17   30.11F
$$

ABBREVIATIONS USED IN REMARKS
   TC - TEMPERATURE IN CELSIUS
  WCI - WIND CHILL INDEX
   HX - HEAT INDEX
  VSB - VISIBILITY




USA.gov is the U.S. government's official web portal to all federal, state and local government web resources and services.